Location: ?????
(38.2579°N, 22.9711°E)
Time: 07:00:30
(UTC+00:00)

IRIDIUM 104 - Pass Details

Date: 13 December 2025
Orbit: 776 x 779 km, 86.4° (Epoch: 20 January)

Event Time Altitude Azimuth Distance (km) Brightness Sun altitude
Rises 15:31:46 0° 360° (N) 3,269 7.3 -4.9°
Reaches altitude 10° 15:34:09 10° 2° (N) 2,337 6.5 -5.3°
Maximum altitude 15:39:22 71° 87° (E) 824 4.3 -6.2°
Drops below altitude 10° 15:44:33 10° 171° (S) 2,319 7.0 -7.2°
Sets 15:46:53 0° 173° (S) 3,241 7.8 -7.6°
